Starlink 3572

operational
NORAD ID: 51879 Int'l Des: 2022-022 Owner: SPXS Country: US Constellation: starlink
LEOCIRCULAR

Über Starlink 3572

Beschreibung wird geladen...

Live-Position

3D-Globus wird geladen...

Nächste Überflüge

Höhenverlauf

Altitude vs Time

uPlot chart will show altitude changes over time

Zweizeiliger Elementsatz

1 51879U 22022AD 25260.69561872 -.00000421 00000-0 -83362-5 0 9993
2 51879 53.2183 55.7208 0001271 86.7084 273.4053 15.08843003197132
Epoch: 17. Sept. 2025 • Age: 25 hours

Aktueller Status

Höhe 549.4 km
Geschwindigkeit 7.59 km/s
Subsatellitenpunkt -29.84°S, 118.41°E
Startdatum 3. März 2022
Alter 3.5 years
Typ internet

Technische Details

Klassifizierung Payload
Masse 297.00 kg
Trockenmasse 275.00 kg
Gesamtmasse 297.00 kg
Länge 0.20 m
Durchmesser 2.80 m
Spannweite 9.00 m
Form Box + pan
Hersteller SPXS
Bus-Typ Starlink
Phasenstatus In Orbit
Besitzer/Staat SPXS/US

Große Konstellationen

Loading constellations...